This is the latest recevied weather packets stored in our database for station/object N0ZRD-10. If no packets are shown the sender has not sent any weather packets the latest 1 day(s).
| Time | Temp. | Humidity | Pressure | Rain* | Wind** | Luminosity | Snow |
|---|---|---|---|---|---|---|---|
| 1778085641 | 3.33° C | 54% | - | 0 mm | - | - | - |
| 1778084439 | 2.78° C | 52% | - | 0 mm | - | - | - |
| 1778083838 | 2.78° C | 54% | - | 0 mm | - | - | - |
| 1778083236 | 2.78° C | 50% | - | 0 mm | - | - | - |
| 1778082034 | 2.78° C | 52% | - | 0 mm | - | - | - |
| 1778065206 | -0.56° C | 66% | - | 0 mm | - | - | - |
| 1778064004 | -0.56° C | 67% | - | 0 mm | - | - | - |
| 1778063402 | -1.11° C | 67% | - | 0 mm | - | - | - |
| 1778062801 | -1.11° C | 67% | - | 0 mm | - | - | - |
| 1778061600 | -1.11° C | 67% | - | 0 mm | - | - | - |
| 1778060398 | -1.11° C | 68% | - | 0 mm | - | - | - |
| 1778059797 | -1.11° C | 69% | - | 0 mm | - | - | - |
| 1778058595 | -1.11° C | 68% | - | 0 mm | - | - | - |
| 1778057994 | -1.11° C | 67% | - | 0 mm | - | - | - |
| 1778056792 | -0.56° C | 66% | - | 0 mm | - | - | - |
| 1778056191 | -0.56° C | 64% | - | 0 mm | - | - | - |
| 1778054989 | 0.56° C | 63% | - | 0 mm | - | - | - |
| 1778054388 | 0.56° C | 63% | - | 0 mm | - | - | - |
| 1778053787 | 1.11° C | 61% | - | 0 mm | - | - | - |
| 1778052585 | 0.56° C | 54% | - | 0 mm | - | - | - |
| 1778051984 | 1.11° C | 56% | - | 0 mm | - | - | - |
| 1778051382 | 1.11° C | 56% | - | 0 mm | - | - | - |
| 1778050781 | 1.67° C | 58% | - | 0 mm | - | - | - |
| 1778050180 | 1.11° C | 54% | - | 0 mm | - | - | - |
| 1778049578 | 1.11° C | 53% | - | 0 mm | - | - | - |
* Rain latest hour (hover to see other rain measurements)
** Current wind speed in m/s (hover to see current wind gust speed)